Flag Weather past 2 weeks in Bühl, Baden-Württemberg, Germany

Now
41 °F

Passing clouds.


Feels Like: 41 °F
Forecast: 36 / 43 °F
Wind: 2 mph from North

Location: Karlsruhe - Baden Wurttemberg

Current Time: Nov 28, 2014 at 2:36:48 AM

Latest Report: Nov 27, 2014 at 10:50 PM


Visibility: 4 mi

Pressure: 29.80 "Hg

Humidity: 93%

Dew point: 39 °F

Location of BühlLocation

Historic Weather in Bühl — Graph

°F

Bühl temperature yesterday

Maximum temperature yesterday: 45 °F (at 12:20 PM)
Minimum temperature yesterday: 41 °F (at 4:20 AM)
Average temperature yesterday: 43 °F

Past Weeks' High & Low Weather Summary

 TemperatureHumidityPressure
High55 °F (Nov 16, 1:20 PM)100% (Nov 14, 5:20 AM)30.30 "Hg (Nov 14, 5:20 AM)
Low36 °F (Nov 24, 7:20 AM)67% (Nov 16, 3:20 PM)29.56 "Hg (Nov 15, 10:50 PM)
Average45 °F89%29.95 "Hg
* Reported Nov 12 10:20 PM — Nov 27 10:50 PM, Bühl, Weather by CustomWeather, © 2014

Note: Actual official high and low records may vary slightly from our data, if they occured in-between our weather recording intervals... More about our weather records

Advertising

Bühl weather history for previous 24 hours

 ConditionsComfort  
Time TempWeatherWind HumidityBarometerVisibility
10:50 PM
Nov 27
41 °FPassing clouds.2 mph93%29.80 "Hg4 mi
10:20 PM41 °FPartly cloudy.No wind93%29.80 "Hg4 mi
9:50 PM41 °FPassing clouds.1 mph93%29.80 "Hg5 mi
9:20 PM41 °FPartly cloudy.1 mph87%29.80 "Hg6 mi
8:50 PM41 °FPassing clouds.1 mph87%29.77 "Hg5 mi
8:20 PM41 °FClear.6 mph87%29.77 "Hg4 mi
7:50 PM43 °FClear.6 mph81%29.77 "Hg5 mi
7:20 PM43 °FPassing clouds.5 mph81%29.77 "Hg6 mi
6:50 PM43 °FPassing clouds.7 mph81%29.77 "Hg5 mi
6:20 PM43 °FPassing clouds.6 mph81%29.77 "Hg6 mi
5:50 PM45 °FPassing clouds.8 mph81%29.77 "Hg5 mi
5:20 PM45 °FPassing clouds.5 mph81%29.77 "Hg5 mi
4:50 PM45 °FPartly cloudy.5 mph87%29.77 "Hg5 mi
4:20 PM45 °FBroken clouds.7 mph87%29.77 "Hg4 mi
3:50 PM45 °FPartly sunny.5 mph87%29.77 "Hg4 mi
3:20 PM45 °FPartly sunny.3 mph87%29.77 "Hg4 mi
2:50 PM45 °FDrizzle. Fog.2 mph81%29.77 "Hg3 mi
2:20 PM45 °FDrizzle. Fog.3 mph87%29.80 "Hg3 mi
1:51 PM45 °FDrizzle. Fog.1 mph87%29.80 "Hg3 mi
1:20 PM45 °FFog.3 mph81%29.77 "Hg3 mi
12:50 PM45 °FFog.2 mph81%29.80 "Hg3 mi
12:20 PM45 °FFog.3 mph81%29.80 "Hg3 mi
11:50 AM43 °FQuite cool.2 mph87%29.80 "HgN/A
11:20 AM43 °FFog.3 mph87%29.80 "Hg3 mi
10:50 AM43 °FFog.3 mph87%29.80 "Hg3 mi
10:20 AM43 °FFog.3 mph87%29.83 "Hg3 mi
9:50 AM43 °FFog.6 mph87%29.80 "Hg3 mi
9:20 AM41 °FFog.5 mph93%29.80 "Hg3 mi
8:50 AM41 °FFog.6 mph93%29.80 "Hg3 mi
8:20 AM41 °FPartly sunny.5 mph93%29.80 "Hg4 mi
7:50 AM41 °FPassing clouds.3 mph93%29.80 "Hg4 mi
7:20 AM41 °FPassing clouds.6 mph87%29.80 "Hg4 mi
6:50 AM41 °FPassing clouds.6 mph93%29.83 "Hg4 mi
6:20 AM41 °FPassing clouds.5 mph87%29.83 "Hg4 mi
5:50 AM41 °FPassing clouds.2 mph87%29.83 "Hg4 mi
5:20 AM41 °FPassing clouds.3 mph87%29.83 "Hg4 mi
4:50 AM41 °FPassing clouds.7 mph87%29.83 "HgN/A
4:20 AM41 °FPassing clouds.7 mph87%29.83 "HgN/A
Weather by CustomWeather, © 2014

See weather overviewHow to use our weather pages